Погода в Гиблицах

Россия / Рязанская область     54°57′49″N   41°05′26″E
темп.,
°C
ветер,
м/с
пор.,
м/с
влажн.,
%
обл.,
%
осадки,
мм/ч
давл.,
гПа
погр.,
м
7 августа, вс
вс700:00+22ююв235838 0.0 101979
03:00+19ююв226511 0.0 101926
06:00+20ю246438 0.0 101983
09:00+25ю244469 0.0 1019381
12:00+30ю123495 0.0 10182106
15:00+28ю1143100 0.0 1017276
18:00+27в244665 0.0 1017130
21:00+23ю234814 0.0 101761
8 августа, пн
пн800:00+21ююз12496 0.0 101817
03:00+17ююз006445 0.0 101811
06:00+18ссз117299 0.0 101933
09:00+24ссв2256100 0.0 1020434
12:00+26зсз2145100 0.0 1020956
15:00+26сз234897 0.0 1020840
18:00+26св135399 0.0 1019130
21:00+20ссв11675 0.0 102011
9 августа, вт
вт900:00+18в227837 0.0 102040
03:00+18вюв117758 0.0 101914
06:00+18в227585 0.0 101950
09:00+20з006786 0.0 101912
12:00+24ююз2351100 0.0 1019415
15:00+26зюз6745100 0.1 10191032
18:00+21зсз41070100 0.0 1018559
21:00+19сз3988100 0.1 1019338
10 августа, ср
ср1000:00+18зсз119597 0.3 101915
03:00+17ссз1298100 1.8 101880
06:00+16сз2497100 0.1 1019178
09:00+17с1397100 0.1 1019191
12:00+17сз1396100 1.6 1019187
15:00+17юз2497100 4.3 1019241
18:00+16юз2494100 1.2 1019224
21:00+15з249583 1.3 101982
11 августа, чт
чт1100:00+13сз25960 0.0 1020110
03:00+11сз269810 0.0 1021129
06:00+12сз389725 0.0 1022254
09:00+14с4887100 0.0 1023593
12:00+22ссв47480 0.0 10221460
15:00+24с35385 0.0 10222181
18:00+22ссз354813 0.0 1022276
21:00+16с22655 0.0 102327